Location: Darr Branch
(32.1532°N, 97.3853°W)
Time: 11:02:06
(UTC+00:00)

Okean 1 Rocket - Pass Details

Date: 18 November 2025
Orbit: 599 x 628 km, 82.5° (Epoch: 07 December)

Event Time Altitude Azimuth Distance (km) Brightness Sun altitude
Rises 11:58:53 0° 357° (N) 2,852 6.3 -13.4°
Reaches altitude 10° 12:01:07 10° 0° (N) 1,944 5.5 -12.9°
Maximum altitude 12:05:23 66° 83° (E) 654 3.4 -12.1°
Drops below altitude 10° 12:09:37 10° 166° (SSE) 1,931 6.0 -11.2°
Sets 12:11:50 0° 169° (S) 2,831 6.8 -10.8°
